Flag for Brazil Weather past 2 weeks in Brasilia, Distrito Federal, Brazil

Now
66 °F

Passing clouds.


Feels Like: 66 °F
Forecast: 67 / 79 °F
Wind: 5 mph from Southeast

Location: Brasilia Aeroporto

Current Time: Mar 3, 2015 at 12:21:39 AM

Latest Report: Mar 3, 2015 at 12:00 AM


Visibility: 10 mi

Pressure: 30.07 "Hg

Humidity: 88%

Dew point: 63 °F

Location of BrasiliaLocation

Historic Weather in Brasilia — Graph

°F

Brasilia temperature yesterday

Maximum temperature yesterday: 77 °F (at 1:00 PM)
Minimum temperature yesterday: 64 °F (at 4:00 AM)
Average temperature yesterday: 69 °F

Past Weeks' High & Low Weather Summary

 TemperatureHumidityPressure
High82 °F (Feb 22, 2:00 PM)100% (Mar 1, 1:00 PM)30.18 "Hg (Mar 1, 1:00 PM)
Low37 °F (Mar 1, 1:00 PM)20% (Feb 17, 2:00 PM)29.95 "Hg (Feb 17, 5:00 PM)
Average71 °F75%30.08 "Hg
* Reported Midnight between Feb 15 and Feb 16 — Mar 2 11:00 PM, Brasilia, Weather by CustomWeather, © 2015

Note: Actual official high and low records may vary slightly from our data, if they occured in-between our weather recording intervals... More about our weather records

Advertising

Brasilia weather history for previous 24 hours

 ConditionsComfort  
Time TempWeatherWind HumidityBarometerVisibility
11:00 PM
Mon, Mar 2
64 °FPassing clouds.8 mph88%30.09 "HgN/A
10:00 PM68 °FPartly cloudy.7 mph83%30.09 "HgN/A
9:00 PM68 °FPartly cloudy.8 mph88%30.09 "HgN/A
8:00 PM70 °FPassing clouds.7 mph73%30.07 "HgN/A
7:00 PM72 °FPassing clouds.9 mph73%30.04 "HgN/A
6:00 PM72 °FPartly sunny.6 mph78%30.04 "HgN/A
5:00 PM70 °FBroken clouds.5 mph83%30.01 "HgN/A
4:00 PM72 °FScattered clouds.8 mph78%30.01 "HgN/A
3:00 PM73 °FBroken clouds.12 mph69%30.04 "HgN/A
2:00 PM75 °FScattered showers. Partly sunny.14 mph69%N/AN/A
1:00 PM77 °FPartly sunny.9 mph65%30.07 "HgN/A
12:00 PM75 °FBroken clouds.9 mph69%30.12 "HgN/A
11:00 AM72 °FMore clouds than sun.9 mph78%30.15 "HgN/A
10:00 AM72 °FPartly sunny.12 mph73%30.15 "HgN/A
9:00 AM72 °FPartly sunny.10 mph73%30.15 "HgN/A
8:00 AM68 °FPartly sunny.3 mph88%30.12 "HgN/A
7:00 AM66 °FSunny.5 mph94%30.09 "Hg10 mi
6:00 AM66 °FPassing clouds.5 mph88%30.07 "HgN/A
5:00 AM64 °FPassing clouds.No wind94%30.07 "HgN/A
4:00 AM64 °FPassing clouds.No wind94%30.07 "HgN/A
3:00 AM66 °FPassing clouds.No wind88%30.07 "HgN/A
2:00 AM66 °FPassing clouds.No wind88%30.09 "HgN/A
1:00 AM66 °FPartly cloudy.3 mph88%30.09 "HgN/A
12:00 AM66 °FMostly cloudy.3 mph88%30.12 "HgN/A
Weather by CustomWeather, © 2015

See weather overviewHow to use our weather pages